This is the latest recevied weather packets stored in our database for station/object N2XGL-1. If no packets are shown the sender has not sent any weather packets the latest 10 day(s).
| Time | Temp. | Humidity | Pressure | Rain* | Wind** | Luminosity | Snow |
|---|---|---|---|---|---|---|---|
| 1777710034 | 5.56° C | 57% | 1016.9 hPa | 0 mm | - | - | - |
| 1777709494 | 5.56° C | 59% | 1017 hPa | 0 mm | - | - | - |
| 1777708984 | 5° C | 60% | 1017.1 hPa | 0 mm | - | - | - |
| 1777708464 | 4.44° C | 54% | 1017.2 hPa | 0 mm | - | - | - |
| 1777707925 | 4.44° C | 54% | 1017.2 hPa | 0 mm | - | - | - |
| 1777707576 | 4.44° C | 52% | 1017.2 hPa | 0 mm | - | - | - |
| 1777707409 | 4.44° C | 52% | 1017.2 hPa | 0 mm | - | - | - |
| 1777706914 | 4.44° C | 51% | 1017.3 hPa | 0 mm | - | - | - |
| 1777706429 | 4.44° C | 50% | 1017.4 hPa | 0 mm | - | - | - |
| 1777705951 | 4.44° C | 49% | 1017.4 hPa | 0 mm | - | - | - |
| 1777705354 | 4.44° C | 48% | 1017.5 hPa | 0 mm | - | - | - |
| 1777704864 | 5° C | 47% | 1017.5 hPa | 0 mm | - | - | - |
| 1777704294 | 5° C | 46% | 1017.6 hPa | 0 mm | - | - | - |
| 1777702775 | 5.56° C | 47% | 1017.6 hPa | 0 mm | - | - | - |
| 1777702689 | 5.56° C | 47% | 1017.6 hPa | 0 mm | - | - | - |
| 1777702462 | 5.56° C | 45% | 1017.5 hPa | 0 mm | - | - | - |
| 1777702198 | 5.56° C | 46% | 1017.6 hPa | 0 mm | - | - | - |
| 1777701714 | 5.56° C | 45% | 1017.5 hPa | 0 mm | - | - | - |
| 1777701149 | 6.11° C | 46% | 1017.6 hPa | 0 mm | - | - | - |
| 1777700599 | 6.11° C | 46% | 1017.5 hPa | 0 mm | - | - | - |
| 1777699074 | 6.67° C | 45% | 1017.5 hPa | 0 mm | - | - | - |
| 1777698499 | 7.22° C | 46% | 1017.4 hPa | 0 mm | - | - | - |
| 1777697921 | 7.22° C | 43% | 1017.4 hPa | 0 mm | - | - | - |
| 1777697434 | 7.78° C | 42% | 1017.3 hPa | 0 mm | - | - | - |
| 1777696919 | 7.78° C | 41% | 1017.3 hPa | 0 mm | - | - | - |
* Rain latest hour (hover to see other rain measurements)
** Current wind speed in m/s (hover to see current wind gust speed)